Home > Weather > Yakutsk > Past weeks

Flag for Russia Past Weather in Yakutsk, Russia — Yesterday and Last 2 Weeks

Now
54 °F

Scattered clouds.


Feels Like: 51 °F
Forecast: 53 / 65 °F
Wind: 8 mph from North

Location: Jakutsk

Current Time: Jun 26, 2016 at 4:32:40 AM

Latest Report: Jun 26, 2016 at 4:00 AM


Visibility: N/A

Pressure: 29.71 "Hg

Humidity: 72%

Dew Point: 45 °F

Location of YakutskLocation

Past Weather in Yakutsk — Graph

°F

Yakutsk Temperature Yesterday

Maximum temperature yesterday: 66 °F (at 12:30 PM)
Minimum temperature yesterday: 50 °F (at 1:00 AM)
Average temperature yesterday: 59 °F

High & Low Weather Summary for the Past Weeks

 TemperatureHumidityPressure
High86 °F (Jun 13, 12:30 PM)100% (Jun 15, 11:30 PM)29.95 "Hg (Jun 15, 11:30 PM)
Low41 °F (Jun 24, 2:30 AM)20% (Jun 13, 12:30 PM)29.56 "Hg (Jun 23, 3:30 AM)
Average60 °F60%29.72 "Hg
* Reported Jun 11 3:00 AM — Jun 26 3:30 AM, Yakutsk, Weather by CustomWeather, © 2016

Note: Actual official high and low records may vary slightly from our data, if they occured in-between our weather recording intervals... More about our weather records

Advertising

Yakutsk Weather History for the Previous 24 Hours

Scroll right to see more
 ConditionsComfort  
Time TempWeatherWind HumidityBarometerVisibility
3:30 AM
Sun, Jun 26
55 °FScattered clouds.10 mph67%29.68 "HgN/A
3:00 AM55 °FScattered clouds.8 mph72%29.68 "HgN/A
2:30 AM55 °FScattered clouds.8 mph67%29.68 "HgN/A
2:00 AM55 °FScattered clouds.10 mph67%29.65 "HgN/A
1:30 AM55 °FPassing clouds.10 mph67%29.65 "HgN/A
1:00 AM55 °FPassing clouds.8 mph67%29.65 "HgN/A
12:30 AM57 °FPassing clouds.10 mph59%29.65 "HgN/A
12:00 AM57 °FPassing clouds.10 mph59%29.65 "HgN/A
11:30 PM
Sat, Jun 25
57 °FPassing clouds.10 mph59%29.65 "HgN/A
11:00 PM57 °FPassing clouds.10 mph63%29.65 "HgN/A
10:30 PM59 °FPassing clouds.8 mph59%29.65 "HgN/A
10:00 PM61 °FSprinkles. Passing clouds.8 mph55%29.65 "HgN/A
9:30 PM61 °FPassing clouds.8 mph55%29.65 "HgN/A
9:00 PM61 °FScattered clouds.6 mph55%29.65 "HgN/A
8:30 PM63 °FScattered clouds.3 mph45%29.65 "HgN/A
8:00 PM61 °FScattered clouds.1 mph55%29.65 "HgN/A
7:30 PM63 °FScattered clouds.3 mph49%29.65 "HgN/A
7:00 PM63 °FScattered clouds.3 mph49%29.65 "HgN/A
6:30 PM63 °FScattered clouds.1 mph49%29.65 "HgN/A
6:00 PM63 °FScattered clouds.1 mph49%29.65 "HgN/A
5:30 PM64 °FScattered clouds.3 mph40%29.68 "HgN/A
5:00 PM66 °FScattered clouds.3 mph40%29.68 "HgN/A
4:30 PM66 °FScattered clouds.1 mph40%29.68 "HgN/A
4:00 PM66 °FScattered clouds.1 mph40%29.71 "HgN/A
3:30 PM64 °FPassing clouds.3 mph40%29.71 "HgN/A
3:00 PM64 °FPassing clouds.3 mph40%29.71 "HgN/A
2:30 PM64 °FPassing clouds.6 mph37%29.71 "HgN/A
2:00 PM66 °FScattered clouds.6 mph35%29.74 "HgN/A
1:30 PM64 °FScattered clouds.6 mph37%29.74 "HgN/A
1:00 PM66 °FScattered clouds.8 mph32%29.74 "HgN/A
12:30 PM66 °FSunny.8 mph30%29.77 "Hg10 mi
12:00 PM64 °FSunny.8 mph37%29.77 "Hg10 mi
11:30 AM64 °FSunny.8 mph37%29.80 "Hg10 mi
11:00 AM64 °FSunny.6 mph34%29.80 "Hg10 mi
10:30 AM64 °FSunny.8 mph32%29.80 "Hg10 mi
10:00 AM64 °FSunny.6 mph32%29.80 "Hg10 mi
9:30 AM64 °FSunny.8 mph37%29.83 "Hg10 mi
9:00 AM63 °FSunny.8 mph39%29.83 "Hg10 mi
8:30 AM61 °FPassing clouds.6 mph45%29.83 "HgN/A
8:00 AM59 °FSunny.6 mph48%29.86 "Hg10 mi
7:30 AM57 °FSunny.6 mph51%29.86 "Hg10 mi
7:00 AM55 °FSunny.6 mph59%29.86 "Hg10 mi
6:30 AM54 °FSunny.6 mph63%29.86 "Hg10 mi
6:00 AM52 °FSunny.6 mph67%29.86 "Hg10 mi
5:30 AM52 °FSunny.3 mph67%29.86 "Hg10 mi
5:00 AM52 °FSunny.3 mph67%29.89 "Hg10 mi
4:30 AM50 °FSunny.6 mph71%29.86 "Hg10 mi
4:00 AM52 °FSunny.3 mph72%29.86 "Hg10 mi
Weather by CustomWeather, © 2016

See weather overviewHow to use our weather pages